2024/06/17 11:50:00,0.0,21.8
2024/06/17 12:00:00,0.0,21.8
2024/06/17 12:10:00,0.0,21.7
2024/06/17 12:20:00,0.0,21.3
2024/06/17 12:30:00,0.0,21.2
2024/06/17 12:40:00,0.0,21.3
2024/06/17 12:50:00,0.0,21.3
2024/06/17 13:00:00,0.0,20.6
2024/06/17 13:10:00,0.0,20.8
2024/06/17 13:20:00,0.1,20.6
2024/06/17 13:30:00,0.0,20.8
2024/06/17 13:40:00,0.0,20.4
2024/06/17 13:50:00,0.0,20.3
2024/06/17 14:00:00,0.0,20.3
2024/06/17 14:10:00,0.0,19.9
2024/06/17 14:20:00,0.0,19.9
2024/06/17 14:30:00,0.0,19.6
2024/06/17 14:40:00,0.0,19.2
2024/06/17 14:50:00,0.0,19.0
2024/06/17 15:00:00,0.0,19.1
2024/06/17 15:10:00,0.0,19.0
2024/06/17 15:20:00,0.0,19.2
2024/06/17 15:30:00,0.0,18.6
2024/06/17 15:40:00,0.0,19.3
2024/06/17 15:50:00,0.0,18.9
2024/06/17 16:00:00,0.0,20.4
2024/06/17 16:10:00,0.0,20.0
2024/06/17 16:20:00,0.0,20.0
2024/06/17 16:30:00,0.0,20.1
2024/06/17 16:40:00,0.0,19.7
2024/06/17 16:50:00,0.0,20.4
2024/06/17 17:00:00,0.0,20.4
2024/06/17 17:10:00,0.0,20.3
2024/06/17 17:20:00,0.0,20.2
2024/06/17 17:30:00,0.0,20.1
2024/06/17 17:40:00,0.0,20.4
2024/06/17 17:50:00,0.0,20.1
2024/06/17 18:00:00,0.0,19.6
2024/06/17 18:10:00,0.0,19.5
2024/06/17 18:20:00,0.0,20.0
2024/06/17 18:30:00,0.0,20.0
2024/06/17 18:40:00,0.0,19.8
2024/06/17 18:50:00,0.0,20.0
2024/06/17 19:00:00,0.0,20.3
2024/06/17 19:10:00,0.0,20.1
2024/06/17 19:20:00,0.0,20.0
2024/06/17 19:30:00,0.0,20.0
2024/06/17 19:40:00,0.0,20.0
2024/06/17 19:50:00,0.0,19.9
2024/06/17 20:00:00,0.0,19.7
2024/06/17 20:10:00,0.0,19.9
2024/06/17 20:20:00,0.0,19.8
2024/06/17 20:30:00,0.0,19.8
2024/06/17 20:40:00,0.0,19.8
2024/06/17 20:50:00,0.0,19.9
2024/06/17 21:00:00,0.0,19.9
2024/06/17 21:10:00,0.0,19.8
2024/06/17 21:20:00,0.0,19.7
2024/06/17 21:30:00,0.0,19.5
2024/06/17 21:40:00,0.0,19.4
2024/06/17 21:50:00,0.0,19.4
2024/06/17 22:00:00,0.0,19.4
2024/06/17 22:10:00,0.0,19.4
2024/06/17 22:20:00,0.0,19.0
2024/06/17 22:30:00,0.0,18.2
2024/06/17 22:40:00,0.0,17.7
2024/06/17 22:50:00,0.0,17.7
2024/06/17 23:00:00,0.0,17.7
2024/06/17 23:10:00,0.0,17.4
2024/06/17 23:20:00,0.0,17.5
2024/06/17 23:30:00,0.0,17.0
2024/06/17 23:40:00,0.0,16.9
2024/06/17 23:50:00,0.0,16.8
